Location: Breungeshain
(50.5000°N, 9.2000°E)
Time: 07:49:27
(UTC+00:00)

ISS - Pass Details

Date: 21 May 2018
Orbit: 402 x 407 km, 51.6° (Epoch: 27 May)

Event Time Altitude Azimuth Distance (km) Brightness Sun altitude
Rises 01:55:56 0° 286° (WNW) 2,321 -0.2 -11.4°
Reaches altitude 10° 01:58:05 10° 279° (W) 1,459 -1.3 -11.2°
Maximum altitude 02:01:11 42° 208° (SSW) 588 -3.5 -10.9°
Drops below altitude 10° 02:04:17 10° 135° (SE) 1,453 -1.1 -10.6°
Sets 02:06:25 0° 129° (SE) 2,310 0.0 -10.4°
